Location: Chiroubles
(46.1812°N, 4.6660°E)
Time: 03:34:47
(UTC+00:00)

SL-16 R/B - Pass Details

Date: 15 August 2020
Orbit: 841 x 849 km, 71.0° (Epoch: 27 September)

Event Time Altitude Azimuth Distance (km) Brightness Sun altitude
Rises 22:08:06 0° 341° (NNW) 3,424 6.7 -26.2°
Reaches altitude 10° 22:11:39 10° 3° (N) 2,484 5.4 -26.5°
Maximum altitude 22:15:02 16° 40° (NE) 2,092 4.5 -26.8°
Enters shadow 22:18:04 11° 73° (ENE) 2,405 4.5 -27.0°
